Location: Franzen
(48.6167°N, 15.3833°E)
Time: 17:58:24
(UTC+00:00)

A-11 Canister half - Pass Details

Date: 31 July 2021
Orbit: 1515 x 1685 km, 47.2° (Epoch: 19 September)

Event Time Altitude Azimuth Distance (km) Brightness Sun altitude
Rises 21:22:34 0° 287° (WNW) 4,901 12.3 -19.6°
Reaches altitude 10° 21:25:45 10° 284° (WNW) 3,927 11.6 -19.8°
Maximum altitude 21:35:33 58° 209° (SSW) 1,918 9.2 -20.4°
Enters shadow 21:41:09 29° 144° (SE) 2,748 9.7 -20.8°
Drops below altitude 10° 21:45:23 10° 134° (SE) 3,934 - -21.0°
Sets 21:48:36 0° 130° (SE) 4,910 - -21.2°
